Weather History for Fullerton, CA

Change the Weather History Date:

Wednesday, June 26, 2013

  Actual Average Record
Temperature  
Mean Temperature 77 °F 72 °F  
Max Temperature 88 °F 81 °F 92 °F (2000)
Min Temperature 66 °F 62 °F 57 °F (2005)
Degree Days  
Heating Degree Days 0 0  
Month to date heating degree days 0 0  
Since 1 June heating degree days 0 0  
Since 1 July heating degree days 726 1224  
Cooling Degree Days 12 7  
Month to date cooling degree days 208 117  
Year to date cooling degree days 563 240  
Since 1 June cooling degree days 208 117  
Growing Degree Days 26 (Base 50)    
Moisture  
Dew Point 60 °F    
Average Humidity 60    
Maximum Humidity 81    
Minimum Humidity 39    
Precipitation  
Precipitation 0.00 in 0.00 in 0.01 in (1954)
Month to date precipitation 0.00 0.08  
Year to date precipitation 2.53 9.64  
Since 1 July precipitation 5.84 13.87  
Snow  
Snow 0.00 in - - ()
Month to date snowfall 0.0  
Year to date snowfall 0.0  
Since 1 July snowfall 0.0  
Snow Depth 0.00 in    
Sea Level Pressure  
Sea Level Pressure 29.94 in    
Wind  
Wind Speed 3 mph (SSW)    
Max Wind Speed 10 mph    
Max Gust Speed 15 mph    
Visibility 10 miles    
Events      
T = Trace of Precipitation, MM = Missing Value Source: NWS Daily Summary

Daily Weather History Graph

Daily Weather History Graph

Search for Another Location

Airport:

Trip Planner

Search our weather history database for the weather conditions in past years. The results will help you decide how hot, cold, wet, or windy it might be!

Date:

Astronomy

Jun. 26, 2013 Rise Set
Actual Time 5:42 AM PDT 8:06 PM PDT
Civil Twilight 5:13 AM PDT 8:35 PM PDT
Nautical Twilight 4:37 AM PDT 9:11 PM PDT
Astronomical Twilight 3:58 AM PDT 9:50 PM PDT
Moon 10:45 PM PDT (6/26) 9:29 AM PDT (6/26)
Length of Visible Light 15h 22m
Length of Day
14h 23m
Waning Gibbous, 84% of the Moon is Illuminated
Jun 26
Waning Gibbous
Jun 29
Last Quarter
Jul 8
New
Jul 15
First Quarter
Jul 22
Full

Hourly Weather History & Observations

Time (PDT) Temp. Heat Index Dew Point Humidity Pressure Visibility Wind Dir Wind Speed Gust Speed Precip Events Conditions
12:53 AM 68.0 °F - 59.0 °F 73% 29.93 in 10.0 mi Calm Calm - N/A   Clear
1:53 AM 68.0 °F - 59.0 °F 73% 29.93 in 10.0 mi Calm Calm - N/A   Clear
2:53 AM 68.0 °F - 60.1 °F 76% 29.93 in 10.0 mi Calm Calm - N/A   Clear
3:53 AM 68.0 °F - 60.1 °F 76% 29.94 in 10.0 mi Calm Calm - N/A   Clear
4:53 AM 66.9 °F - 60.1 °F 79% 29.94 in 10.0 mi Calm Calm - N/A   Clear
5:53 AM 66.0 °F - 59.0 °F 78% 29.95 in 10.0 mi Calm Calm - N/A   Clear
6:53 AM 69.1 °F - 61.0 °F 75% 29.96 in 10.0 mi South 4.6 mph - N/A   Clear
7:18 AM 68.0 °F - 60.8 °F 78% 29.96 in 10.0 mi South 3.5 mph - N/A   Partly Cloudy
7:26 AM 68.0 °F - 60.8 °F 78% 29.96 in 10.0 mi South 4.6 mph - N/A   Mostly Cloudy
7:53 AM 70.0 °F - 61.0 °F 73% 29.96 in 10.0 mi Calm Calm - N/A   Overcast
8:17 AM 69.8 °F - 60.8 °F 73% 29.96 in 9.0 mi South 3.5 mph - N/A   Scattered Clouds
8:53 AM 72.0 °F - 61.0 °F 68% 29.97 in 8.0 mi Calm Calm - N/A   Partly Cloudy
9:53 AM 75.9 °F - 61.0 °F 60% 29.96 in 9.0 mi Calm Calm - N/A   Clear
10:53 AM 81.0 °F 81.7 °F 61.0 °F 50% 29.96 in 10.0 mi Variable 3.5 mph - N/A   Clear
11:53 AM 84.0 °F 84.5 °F 62.1 °F 47% 29.95 in 10.0 mi SW 6.9 mph - N/A   Clear
12:53 PM 84.9 °F 85.0 °F 61.0 °F 44% 29.95 in 10.0 mi SW 8.1 mph - N/A   Clear
1:53 PM 84.0 °F 84.0 °F 60.1 °F 44% 29.95 in 10.0 mi South 8.1 mph - N/A   Clear
2:53 PM 84.9 °F 84.4 °F 59.0 °F 41% 29.94 in 9.0 mi Variable 4.6 mph - N/A   Clear
3:53 PM 87.1 °F 86.5 °F 59.0 °F 39% 29.92 in 10.0 mi SSW 8.1 mph - N/A   Clear
4:53 PM 86.0 °F 85.7 °F 60.1 °F 41% 29.91 in 10.0 mi SSW 6.9 mph - N/A   Clear
5:53 PM 84.9 °F 84.8 °F 60.1 °F 43% 29.89 in 10.0 mi Variable 5.8 mph - N/A   Clear
6:53 PM 86.0 °F 86.1 °F 61.0 °F 43% 29.88 in 10.0 mi WSW 5.8 mph - N/A   Clear
7:53 PM 82.0 °F 82.1 °F 59.0 °F 45% 29.89 in 10.0 mi West 5.8 mph - N/A   Clear
8:53 PM 79.0 °F - 59.0 °F 50% 29.91 in 10.0 mi SW 3.5 mph - N/A   Clear
9:53 PM 78.1 °F - 59.0 °F 52% 29.94 in 8.0 mi Calm Calm - N/A   Clear
10:53 PM 73.9 °F - 62.1 °F 66% 29.96 in 10.0 mi South 6.9 mph - N/A   Clear
11:53 PM 71.1 °F - 62.1 °F 73% 29.98 in 10.0 mi Calm Calm - N/A   Clear